Flag for Netherlands Weather past 2 weeks in Utrecht, Netherlands

Now
75 °F

Sunny.


Feels Like: 77 °F
Forecast: 65 / 80 °F
Wind: 15 mph from Northeast

Location: Amsterdam Schiphol Airport

Current Time: Jul 22, 2014 at 2:06:59 PM

Latest Report: Jul 22, 2014 at 1:25 PM


Visibility: 10 mi

Pressure: 30.09 "Hg

Humidity: 65%

Dew point: 63 °F

Location of UtrechtLocation

Historic Weather in Utrecht — Graph

°F

Utrecht temperature yesterday

Maximum temperature yesterday: 70 °F (at 10:25 AM)
Minimum temperature yesterday: 64 °F (at 1:25 AM)
Average temperature yesterday: 67 °F

Past Weeks' High & Low Weather Summary

 TemperatureHumidityPressure
High93 °F (Jul 19, 3:55 PM)100% (Jul 9, 3:55 PM)30.18 "Hg (Jul 9, 3:55 PM)
Low55 °F (Jul 9, 4:55 AM)30% (Jul 19, 3:55 PM)29.71 "Hg (Jul 13, 2:55 PM)
Average68 °F81%29.94 "Hg
* Reported Jul 7 12:25 PM — Jul 22 12:55 PM, Utrecht, Weather by CustomWeather, © 2014

Note: Actual official high and low records may vary slightly from our data, if they occured in-between our weather recording intervals... More about our weather records

Advertising

Utrecht weather history for previous 24 hours

 ConditionsComfort  
Time TempWeatherWind HumidityBarometerVisibility
12:55 PM
Jul 22
75 °FPassing clouds.15 mph69%30.09 "HgN/A
12:25 PM75 °FPassing clouds.15 mph65%30.09 "HgN/A
11:55 AM73 °FPassing clouds.13 mph69%30.09 "HgN/A
11:25 AM75 °FPassing clouds.12 mph69%30.09 "HgN/A
10:55 AM73 °FPassing clouds.12 mph74%30.09 "HgN/A
10:25 AM72 °FPassing clouds.9 mph78%30.09 "HgN/A
9:55 AM72 °FPassing clouds.10 mph78%30.09 "HgN/A
9:25 AM72 °FPassing clouds.10 mph78%30.09 "HgN/A
8:55 AM70 °FPassing clouds.10 mph83%30.07 "HgN/A
7:55 AM68 °FPassing clouds.8 mph88%30.07 "HgN/A
7:25 AM68 °FSunny.8 mph88%30.04 "Hg10 mi
6:55 AM68 °FPassing clouds.8 mph88%30.04 "HgN/A
6:25 AM66 °FPassing clouds.7 mph94%30.04 "HgN/A
5:55 AM66 °FClear.5 mph94%30.04 "Hg10 mi
5:25 AM66 °FPassing clouds.7 mph94%30.04 "HgN/A
4:55 AM68 °FPassing clouds.7 mph94%30.04 "HgN/A
4:25 AM66 °FPassing clouds.8 mph94%30.04 "HgN/A
3:55 AM66 °FPassing clouds.9 mph94%30.04 "HgN/A
3:25 AM66 °FPassing clouds.12 mph94%30.04 "HgN/A
2:55 AM66 °FPassing clouds.12 mph94%30.01 "HgN/A
1:55 AM66 °FPassing clouds.10 mph94%30.04 "Hg6 mi
1:25 AM66 °FPassing clouds.12 mph94%30.04 "Hg6 mi
12:55 AM66 °FPassing clouds.9 mph94%30.04 "HgN/A
12:25 AM66 °FPassing clouds.12 mph94%30.04 "Hg6 mi
11:55 PM
Jul 21
66 °FPassing clouds.12 mph94%30.01 "Hg5 mi
11:25 PM66 °FPartly cloudy.12 mph100%30.04 "Hg4 mi
10:55 PM66 °FFog.10 mph100%30.01 "Hg3 mi
10:25 PM66 °FLight rain. Fog.12 mph100%30.01 "Hg3 mi
9:55 PM66 °FLight rain. Partly sunny.14 mph100%30.01 "Hg4 mi
9:25 PM66 °FScattered clouds.12 mph100%30.01 "Hg4 mi
8:55 PM66 °FLight rain. Scattered clouds.12 mph100%30.01 "Hg4 mi
8:25 PM66 °FLight rain. Scattered clouds.10 mph100%30.01 "Hg4 mi
7:55 PM68 °FDrizzle. Broken clouds.10 mph94%30.01 "Hg3 mi
7:25 PM66 °FSprinkles. Partly sunny.12 mph100%30.01 "Hg4 mi
6:55 PM66 °FSprinkles. Partly sunny.10 mph100%30.01 "Hg6 mi
6:25 PM66 °FSprinkles. Broken clouds.12 mph100%29.98 "HgN/A
5:55 PM66 °FSprinkles. Broken clouds.12 mph100%29.98 "HgN/A
5:25 PM66 °FRain showers. Fog.13 mph100%29.98 "Hg2 mi
4:55 PM66 °FLots of rain. Fog.13 mph100%29.98 "Hg2 mi
4:25 PM68 °FDrizzle. Fog.13 mph94%29.98 "Hg2 mi
3:55 PM68 °FDrizzle. Fog.14 mph94%29.98 "Hg2 mi
3:25 PM68 °FPartly sunny.12 mph94%29.98 "Hg5 mi
2:55 PM68 °FSprinkles. Broken clouds.12 mph94%29.95 "HgN/A
2:25 PM68 °FSprinkles. Mostly cloudy.10 mph94%29.95 "HgN/A
Weather by CustomWeather, © 2014

See weather overviewHow to use our weather pages